Погода Туапсе

Хотите узнать прогноз погоды Туапсе? Тогда Вам сюда: Погода Туапсе

Поиск расширенной информации на нашем сайте:

Полезная информация:

Новости сайта



14.11.2019
Обновлён Долгосрочный прогноз погоды по России и другим странам хСССР на ноябрь-декабрь 2019 года.
Опубликованы прогностические карты: Предварительный прогноз на декабрь 2019 года, Предварительный прогноз на январь 2020 года, Предварительная схема синоптических процессов на декабрь 2019 г..

11.11.2019
Обновлены Долгосрочный прогноз погоды по России и другим странам хСССР на ноябрь-декабрь 2019 года и Предварительный прогноз на зиму 2019/2020 годов

04.11.2019
Опубликован Долгосрочный прогноз погоды по России и другим странам хСССР на ноябрь 2019 года
Сравнение прогнозируемой аномалии приземной температуры воздуха на ноябрь 2019 года по разным моделям
Предварительный прогноз на зиму 2019/2020 года




Погода Туапсе - сегодня

Время (UTC), дата Ветер
(°,м/с) 
Видим.   Явления Облачность Т
(°С)
Тd
(°С)
f(%) Тe
(°С)
Pmin
(гПа)
dP
(гПа)
Po
(мм)
O2
(г/м3)
Тmin Tmax R s Состояние
почвы
00 20.11.19 050 (СВ) 10 км    6/6 1000 м 
[Sc]
+8.5 +4.1 74 +9  1024.9  -0.4  763  298           
03 20.11.19 050 (СВ) 10 км    8/8 1000 м 
[Sc]
+8.4 +3.6 72 +8  1024.3  -0.6  763  298  +7.9         
06 20.11.19 050 (СВ) 10 км    10/8 1000 м средняя, верхняя 
[Sc|Ac trans|Ci sp]
+9.2 +3 65 +9  1024.5  0.3  763  297           
09 20.11.19 060 (СВ) 20000 м    10/6 1000 м средняя, верхняя 
[Sc|Ac trans|Ci sp]
+13.5 +2.7 48 +14  1023.3  -1.1  762  292           
12 20.11.19 060 (СВ) 10 км    10/6 1000 м средняя, верхняя 
[Sc|Ac trans|Ci sp]
+15.1 +2.6 43 +16  1022.2  -1.1  761  290           
15 20.11.19 040 (СВ) 10 км    10/8 1000 м средняя, верхняя 
[Cu Sc|Ac trans|Ci sp]
+12.4 +1.3 47 +13  1022.4  0.1  761  293    +15.3       
18 20.11.19 050 (СВ) 10 км    10/8 1000 м средняя 
[Cu Sc|Ac As]
+10.9 +2.3 55 +11  1021.9  -0.5  761  294           
21 20.11.19 030 (СВ) 3{12}  10 км    8/3 1000 м верхняя 
[Cu med, cong|Ci sp]
+9.5 +1.9 59 +9  1021.4  -0.5  760  296           
00 21.11.19 020 (С) 5-11{12}  10 км    3/3 1000 м 
[Cu med, cong]
+7.6 +0.9 62 +6  1021.3  -0.2  760  298           
03 21.11.19 020 (С) 10 км    3/3 1000 м 
[Cu med, cong]
+6.2 -0.1 64 +4  1021.3  760  300  +6.2         
06 21.11.19 030 (СВ) 5-12{13}  20000 м    6/1 1000 м средняя, верхняя 
[Sc|Ac cast|Ci fib]
+6.2 -1.1 59 +4  1021.5  0.2  760  300  +6         
09 21.11.19 040 (СВ) 4{12}  20000 м    10/8 1000 м кучево-дожд., верхняя 
[Cb cap|Ci sp]
+6.5 -1.9 55 +5  1020.9  -0.6  760  299           
12 21.11.19 030 (СВ) 6-13{13}  20000 м    10/8 1000 м кучево-дожд., верхняя 
[Cb cap|Ci sp]
+5.2 -3.2 55 +3  1020.5  -0.4  760  301           
15 21.11.19 030 (СВ) 10 км  {ливн. осадки}  10/10 1000 м кучево-дожд. 
[Cb cap]
+4.3 -3.7 56 +1  1020  -0.6  759  302    +7.2  0.1     
18 21.11.19 030 (СВ) 4-13{16}  10 км  в посл. час ливневой дождь  10/10 1000 м кучево-дожд. 
[Cb cap]
+3.4 -4.5 56 +1  1020.2  0.2  759  303           
21 21.11.19 040 (СВ) 5-10{13}  10 км  {ливн. осадки}  10/10 1000 м кучево-дожд. 
[Cb cap]
+3 -4.5 58 +1  1021.2  760  303           
00 22.11.19 040 (СВ) 7-15{15}  10 км  {ливн. осадки}  10/10 1000 м кучево-дожд. 
[Cb cap]
+2.8 -4.9 57 -1  1022.1  0.9  761  304           
03 22.11.19 040 (СВ) 10 км    6/6 1000 м кучево-дожд. 
[Cb cap]
+2.4 -4.8 59 -1  1022.6  0.5  761  305  +2    0.1     
06 22.11.19 030 (СВ) 5-12{14}  20000 м    6/3 1000 м средняя 
[Sc|Ac trans]
+3.7 -4.5 55 +1  1024.1  1.5  762  304           
09 22.11.19 040 (СВ) 7-12{12}  20000 м    1/1 1000 м 
[Cu med, cong]
+6.3 -3.8 48 +4  1023.8  -0.2  762  301           
12 22.11.19 030 (СВ) 6-12{12}  20000 м    1/0 средняя 
[Ac trans]
+7.2 -4.1 44 +5  1023.3  -0.5  762  300           
15 22.11.19 030 (СВ) 3-12{14}  10 км    ясно 
+5.7 -5.6 44 +5  1022.9  -0.4  761  301    +7.4       
18 22.11.19 020 (С) 4{12}  10 км    ясно 
+4.3 -6 47 +3  1022.7  -0.3  761  303           
21 22.11.19 020 (С) 3{11}  10 км    ясно 
+3.7 -6.1 49 +2  1023  0.3  761  303           
00 23.11.19 020 (С) 10 км    ясно 
+2.9 -5.7 53 +2  1022.5  -0.5  761  304           
Время (UTC), дата Ветер
(°,м/с) 
Видим.   Явления Облачность Т
(°С)
Тd
(°С)
f(%) Тe
(°С)
Pmin
(гПа)
dP
(гПа)
Po
(мм)
O2
(г/м3)
Тmin Tmax R s Состояние
почвы

Для получения пояснительной информации подведите курсор к названию столбца.

ПОГОДА Туапсе - архив

Всё, что Вы хотите узнать о погоде Туапсе - удобно и подробно!

Выберите нужную дату (начиная с 1 января 2019* года) и нажмите кнопку "Найти".
Будут отображены архивные сводки погоды по пункту Туапсе, начиная с указанной даты.


Отображать данные в формате CSV (для использования в таблицах Excel)


Внимание! Наш архив погоды предназначен исключительно для личного некоммерческого использования в познавательных целях. Если Вам необходимы официальные справки о состоянии погоды (для производственных, юридических, коммерческих и т.п. целей), обращайтесь в органы Росгидромета.

*Примечание: данная дата относится к архиву по метеостанциям СССР (Россия, СНГ, Балтия).
Архив по метеостанциям Зарубежной Европы и Азии (кроме Китая) хранится 10 дней, по другим регионам земного шара (Китай, Африка, Америка, Австралия, Океания) - 1 день.

Туапсе - район местоположения метеостанции


Название, широта, долгота, высота метеостанции:
Туапсе 44.1°ш. 39.1°д. 61 м над ур. моря [Российская Федерация]

Дополнительная информация

В oтличие oт бoльшинства пoгoдных сайтoв мы публикуем пoдрoбную метеoинфoрмацию в детальнoм прoфессиoнальнoм фoрмате.

Характеристики температуры и влажнoсти вoздуха измеряются на высoте 2 м в тени вдали oт зданий и деревьев.
Скoрoсть ветра измеряется на высoте 10 м (на урoвне рoста челoвека скoрoсть ветра ниже в 1.5-2 раза). Если метеoстанция нахoдится в гoрoде или в лесу, тo скoрoсть ветра занижена на 2-4 м/с пo сравнению с oткрытым местoм. Скoрoсть ветра над акватoриями крупных рек и oзёр, а также на вершинах хoлмoв на 2-5 м/с выше, чем в oбычных услoвиях.
Атмoсфернoе давление в разных тoчках местнoсти мoжет значительнo oтличаться oт давления на метеoстанции, в зависимoсти oт услoвий рельефа (при пoдъёме на 10 м давление пoнижается примернo на 1 мм рт.ст.).